TRA76B EHGG-EDDF

Flight info

Callsign TRA76B
Flight time N/A
Altitude 35000
Route SONEB4C SONEB DCT BAMSU DCT ROLIS ROLIS5A
Aircraft A21N/M-V/N

Departure

Time 2026-05-06 17:23
Airport Groningen Airport Eelde (EHGG)

Arrival

Time N/A
Airport Frankfurt Main Airport (EDDF)
Time Latitude Longitude Altitude Speed Heading
2026-05-06 17:05 53.12744 6.58431 24 ft 0 kts 359°
2026-05-06 17:09 53.12744 6.58430 24 ft 0 kts 359°
2026-05-06 17:10 53.12751 6.58430 24 ft 0 kts 359°
2026-05-06 17:12 53.12753 6.58433 24 ft 0 kts 23°
2026-05-06 17:13 53.12760 6.58447 24 ft 2 kts 69°
2026-05-06 17:13 53.12760 6.58471 24 ft 0 kts 97°
2026-05-06 17:13 53.12759 6.58474 24 ft 4 kts 100°
2026-05-06 17:13 53.12714 6.58504 26 ft 9 kts 204°
2026-05-06 17:14 53.12665 6.58429 26 ft 12 kts 231°
2026-05-06 17:14 53.12588 6.58269 24 ft 19 kts 231°
2026-05-06 17:14 53.12510 6.58105 23 ft 17 kts 230°
2026-05-06 17:14 53.12437 6.57948 23 ft 17 kts 232°
2026-05-06 17:15 53.12367 6.57856 26 ft 10 kts 197°
2026-05-06 17:15 53.12274 6.57828 27 ft 19 kts 188°
2026-05-06 17:15 53.12154 6.57789 29 ft 17 kts 208°
2026-05-06 17:15 53.12066 6.57642 27 ft 19 kts 229°
2026-05-06 17:16 53.11987 6.57472 25 ft 19 kts 233°
2026-05-06 17:16 53.11900 6.57296 29 ft 19 kts 233°
2026-05-06 17:16 53.11819 6.57118 25 ft 19 kts 230°
2026-05-06 17:16 53.11741 6.56952 27 ft 18 kts 232°
2026-05-06 17:17 53.11660 6.56811 27 ft 15 kts 206°
2026-05-06 17:17 53.11591 6.56814 29 ft 6 kts 152°
2026-05-06 17:17 53.11590 6.56815 29 ft 0 kts 151°
2026-05-06 17:20 53.11529 6.56889 29 ft 13 kts 149°
2026-05-06 17:21 53.11454 6.56832 27 ft 14 kts 229°
2026-05-06 17:21 53.11388 6.56696 28 ft 16 kts 233°
2026-05-06 17:21 53.11320 6.56543 23 ft 18 kts 233°
2026-05-06 17:21 53.11246 6.56391 27 ft 16 kts 231°
2026-05-06 17:22 53.11192 6.56240 30 ft 15 kts 261°
2026-05-06 17:22 53.11171 6.56081 28 ft 10 kts 230°
2026-05-06 17:22 53.11137 6.56088 29 ft 4 kts 140°
2026-05-06 17:22 53.11133 6.56135 29 ft 6 kts 73°
2026-05-06 17:23 53.11244 6.56380 26 ft 59 kts 50°
2026-05-06 17:23 53.11659 6.57244 29 ft 132 kts 52°
2026-05-06 17:23 53.12308 6.58680 287 ft 165 kts 52°
2026-05-06 17:23 53.12966 6.60269 945 ft 168 kts 53°
2026-05-06 17:24 53.13668 6.61706 1907 ft 156 kts 51°
2026-05-06 17:24 53.14355 6.63234 2390 ft 177 kts 62°
2026-05-06 17:24 53.14725 6.65327 2677 ft 204 kts 88°
2026-05-06 17:24 53.14356 6.67749 3046 ft 232 kts 118°
2026-05-06 17:25 53.13318 6.69894 3706 ft 244 kts 134°
2026-05-06 17:25 53.11882 6.71469 4445 ft 254 kts 159°
2026-05-06 17:25 53.10117 6.71852 5199 ft 260 kts 184°
2026-05-06 17:25 53.08325 6.71388 5984 ft 264 kts 199°
2026-05-06 17:26 53.06670 6.69981 6565 ft 273 kts 220°
2026-05-06 17:26 53.05246 6.67745 6848 ft 286 kts 229°
2026-05-06 17:26 53.03945 6.65303 6912 ft 279 kts 231°
2026-05-06 17:26 53.02693 6.62858 6913 ft 277 kts 230°
2026-05-06 17:27 53.01343 6.60636 6911 ft 277 kts 217°
2026-05-06 17:27 52.99634 6.59139 7182 ft 283 kts 195°
2026-05-06 17:27 52.97680 6.58812 8060 ft 283 kts 180°
2026-05-06 17:27 52.95713 6.58989 9065 ft 283 kts 177°
2026-05-06 17:28 52.93743 6.59288 9988 ft 285 kts 176°
2026-05-06 17:28 52.91718 6.59637 10510 ft 303 kts 176°
2026-05-06 17:28 52.89544 6.60028 10819 ft 326 kts 176°
2026-05-06 17:28 52.87215 6.60455 11108 ft 347 kts 176°
2026-05-06 17:29 52.84739 6.60916 11407 ft 367 kts 175°
2026-05-06 17:29 52.82154 6.61408 11904 ft 379 kts 175°
2026-05-06 17:29 52.79509 6.61915 12526 ft 387 kts 175°
2026-05-06 17:29 52.76812 6.62431 13220 ft 392 kts 175°
2026-05-06 17:30 52.74081 6.62952 13957 ft 396 kts 175°
2026-05-06 17:30 52.71361 6.63468 14601 ft 399 kts 175°
2026-05-06 17:30 52.68591 6.63993 15320 ft 401 kts 175°
2026-05-06 17:30 52.65802 6.64519 15978 ft 405 kts 176°
2026-05-06 17:31 52.62991 6.65047 16648 ft 408 kts 176°
2026-05-06 17:31 52.60162 6.65578 17298 ft 411 kts 176°
2026-05-06 17:31 52.57304 6.66114 17938 ft 414 kts 175°
2026-05-06 17:31 52.54439 6.66651 18601 ft 414 kts 175°
2026-05-06 17:32 52.51570 6.67187 19169 ft 417 kts 175°
2026-05-06 17:32 52.48669 6.67729 19659 ft 420 kts 175°
2026-05-06 17:32 52.45750 6.68273 20176 ft 423 kts 175°
2026-05-06 17:32 52.42810 6.68822 20669 ft 426 kts 176°
2026-05-06 17:33 52.39846 6.69373 21178 ft 429 kts 176°
2026-05-06 17:33 52.36900 6.69920 21689 ft 432 kts 176°
2026-05-06 17:33 52.33914 6.70474 22189 ft 435 kts 176°
2026-05-06 17:33 52.30894 6.71034 22653 ft 438 kts 176°
2026-05-06 17:34 52.27842 6.71598 23109 ft 442 kts 176°
2026-05-06 17:34 52.24770 6.72165 23549 ft 445 kts 176°
2026-05-06 17:34 52.21683 6.72735 23936 ft 448 kts 176°
2026-05-06 17:34 52.18569 6.73310 24346 ft 450 kts 176°
2026-05-06 17:35 52.15449 6.73884 24729 ft 452 kts 176°
2026-05-06 17:35 52.12319 6.74460 24867 ft 452 kts 176°
2026-05-06 17:35 52.09194 6.75035 24881 ft 452 kts 176°
2026-05-06 17:36 52.02938 6.76394 24874 ft 456 kts 170°
2026-05-06 17:36 51.99885 6.77856 24884 ft 458 kts 164°
2026-05-06 17:36 51.96892 6.79631 24880 ft 458 kts 161°
2026-05-06 17:36 51.93965 6.81534 24873 ft 459 kts 160°
2026-05-06 17:37 51.91020 6.83525 24883 ft 460 kts 160°
2026-05-06 17:37 51.88029 6.85566 24871 ft 472 kts 160°
2026-05-06 17:37 51.84962 6.87649 24863 ft 480 kts 160°
2026-05-06 17:37 51.81872 6.89732 24868 ft 481 kts 159°
2026-05-06 17:38 51.78782 6.91798 24867 ft 481 kts 160°
2026-05-06 17:38 51.75681 6.93854 24871 ft 481 kts 160°
2026-05-06 17:38 51.72579 6.95899 24872 ft 481 kts 160°
2026-05-06 17:38 51.69479 6.97933 24871 ft 481 kts 160°
2026-05-06 17:39 51.66379 6.99962 24871 ft 481 kts 160°
2026-05-06 17:39 51.63314 7.01964 24872 ft 481 kts 160°
2026-05-06 17:39 51.60212 7.03988 24866 ft 481 kts 160°
2026-05-06 17:39 51.57103 7.06014 24860 ft 481 kts 160°
2026-05-06 17:40 51.54008 7.08028 24872 ft 480 kts 160°
2026-05-06 17:40 51.50911 7.10041 24725 ft 479 kts 160°
2026-05-06 17:40 51.47822 7.12046 24485 ft 478 kts 160°
2026-05-06 17:40 51.44740 7.14046 24244 ft 477 kts 160°
2026-05-06 17:41 51.41667 7.16035 24015 ft 476 kts 160°
2026-05-06 17:41 51.38592 7.18024 23778 ft 475 kts 160°
2026-05-06 17:41 51.35529 7.20002 23535 ft 474 kts 160°
2026-05-06 17:41 51.32487 7.21964 23274 ft 470 kts 159°
2026-05-06 17:42 51.29462 7.23913 22999 ft 467 kts 159°
2026-05-06 17:42 51.26451 7.25849 22725 ft 465 kts 159°
2026-05-06 17:42 51.23455 7.27773 22448 ft 464 kts 160°
2026-05-06 17:42 51.20461 7.29692 22167 ft 462 kts 160°
2026-05-06 17:43 51.17488 7.31635 21935 ft 461 kts 159°
2026-05-06 17:43 51.14548 7.33639 21657 ft 460 kts 158°
2026-05-06 17:43 51.11584 7.35700 21391 ft 470 kts 158°
2026-05-06 17:43 51.08625 7.37779 21198 ft 461 kts 158°
2026-05-06 17:44 51.05721 7.39819 20944 ft 448 kts 158°
2026-05-06 17:44 51.02923 7.41775 20696 ft 430 kts 158°
2026-05-06 17:44 51.00233 7.43640 20446 ft 414 kts 159°
2026-05-06 17:44 50.97642 7.45424 20216 ft 398 kts 159°
2026-05-06 17:45 50.95175 7.47114 19974 ft 385 kts 159°
2026-05-06 17:45 50.92735 7.48803 19741 ft 372 kts 159°
2026-05-06 17:45 50.90429 7.50414 19536 ft 360 kts 159°
2026-05-06 17:45 50.88179 7.51982 19367 ft 348 kts 159°
2026-05-06 17:46 50.85990 7.53502 19085 ft 339 kts 160°
2026-05-06 17:46 50.83845 7.54985 18726 ft 334 kts 160°
2026-05-06 17:46 50.81724 7.56444 18359 ft 330 kts 160°
2026-05-06 17:46 50.79621 7.57888 17996 ft 329 kts 161°
2026-05-06 17:47 50.77526 7.59321 17591 ft 328 kts 161°
2026-05-06 17:47 50.75434 7.60751 17189 ft 326 kts 161°
2026-05-06 17:47 50.73357 7.62169 16788 ft 324 kts 161°
2026-05-06 17:47 50.71294 7.63577 16401 ft 322 kts 161°
2026-05-06 17:48 50.69246 7.64973 16015 ft 320 kts 161°
2026-05-06 17:48 50.67195 7.66367 15636 ft 331 kts 161°
2026-05-06 17:48 50.64956 7.67869 15237 ft 365 kts 160°
2026-05-06 17:48 50.62587 7.69467 14845 ft 373 kts 160°
2026-05-06 17:49 50.60200 7.71089 14475 ft 373 kts 160°
2026-05-06 17:49 50.57822 7.72706 14113 ft 371 kts 160°
2026-05-06 17:49 50.55490 7.74287 13761 ft 369 kts 160°
2026-05-06 17:49 50.53135 7.75882 13374 ft 367 kts 160°
2026-05-06 17:50 50.50799 7.77462 12973 ft 365 kts 160°
2026-05-06 17:50 50.48472 7.79033 12584 ft 362 kts 160°
2026-05-06 17:50 50.46163 7.80591 12175 ft 360 kts 160°
2026-05-06 17:50 50.43887 7.82209 11795 ft 360 kts 154°
2026-05-06 17:51 50.41816 7.84404 11427 ft 360 kts 146°
2026-05-06 17:51 50.39849 7.86818 11052 ft 358 kts 144°
2026-05-06 17:51 50.37909 7.89254 10838 ft 355 kts 144°
2026-05-06 17:51 50.35987 7.91661 10829 ft 354 kts 144°
2026-05-06 17:52 50.34063 7.94060 10830 ft 353 kts 144°
2026-05-06 17:52 50.32278 7.96722 10825 ft 356 kts 133°
2026-05-06 17:52 50.30948 7.99993 10822 ft 360 kts 115°
2026-05-06 17:52 50.30249 8.03768 10827 ft 362 kts 104°
2026-05-06 17:53 50.29794 8.07635 10643 ft 361 kts 102°
2026-05-06 17:53 50.29395 8.11513 10244 ft 360 kts 101°
2026-05-06 17:53 50.29014 8.15327 9803 ft 358 kts 101°
2026-05-06 17:53 50.28634 8.19121 9346 ft 347 kts 101°
2026-05-06 17:54 50.28272 8.22740 8872 ft 326 kts 101°
2026-05-06 17:54 50.27929 8.26151 8423 ft 311 kts 102°
2026-05-06 17:54 50.27592 8.29462 7966 ft 306 kts 102°
2026-05-06 17:54 50.27256 8.32741 7509 ft 303 kts 102°
2026-05-06 17:55 50.26924 8.35970 7068 ft 299 kts 102°
2026-05-06 17:55 50.26600 8.39126 6841 ft 289 kts 102°
2026-05-06 17:55 50.26276 8.42201 6815 ft 286 kts 102°
2026-05-06 17:55 50.25941 8.45276 6807 ft 288 kts 102°
2026-05-06 17:56 50.25608 8.48365 6806 ft 288 kts 102°
2026-05-06 17:56 50.25285 8.51416 6804 ft 288 kts 102°
2026-05-06 17:56 50.24961 8.54507 6803 ft 288 kts 102°
2026-05-06 17:56 50.24635 8.57640 6802 ft 288 kts 102°
2026-05-06 17:57 50.24317 8.60688 6805 ft 288 kts 102°
2026-05-06 17:57 50.23996 8.63778 6806 ft 288 kts 102°
2026-05-06 17:57 50.23674 8.66868 6803 ft 288 kts 102°
2026-05-06 17:57 50.23351 8.69965 6803 ft 288 kts 102°
2026-05-06 17:58 50.23027 8.73058 6802 ft 288 kts 102°
2026-05-06 17:58 50.22703 8.76149 6803 ft 288 kts 102°
2026-05-06 17:58 50.22379 8.79226 6807 ft 288 kts 102°
2026-05-06 17:58 50.22054 8.82312 6961 ft 288 kts 102°
2026-05-06 17:59 50.21808 8.85433 6830 ft 289 kts 97°
2026-05-06 17:59 50.21915 8.88567 6473 ft 291 kts 79°
2026-05-06 17:59 50.22471 8.91598 6108 ft 290 kts 72°
2026-05-06 17:59 50.23141 8.94560 5724 ft 288 kts 71°
2026-05-06 18:00 50.23821 8.97449 5344 ft 286 kts 70°
2026-05-06 18:00 50.24524 9.00343 5048 ft 283 kts 69°
2026-05-06 18:00 50.25218 9.03222 4988 ft 283 kts 70°
2026-05-06 18:00 50.25902 9.06102 4994 ft 284 kts 70°
2026-05-06 18:01 50.26585 9.09000 4995 ft 284 kts 70°
2026-05-06 18:01 50.27263 9.11901 4987 ft 284 kts 70°
2026-05-06 18:01 50.27924 9.14813 4989 ft 284 kts 75°
2026-05-06 18:01 50.28102 9.17862 4807 ft 282 kts 97°
2026-05-06 18:02 50.27511 9.20720 4425 ft 276 kts 125°
2026-05-06 18:02 50.26192 9.22785 4070 ft 266 kts 153°
2026-05-06 18:02 50.24453 9.23575 3992 ft 258 kts 182°
2026-05-06 18:02 50.22740 9.22963 3988 ft 253 kts 210°
2026-05-06 18:03 50.21308 9.21380 3994 ft 252 kts 221°
2026-05-06 18:03 50.19990 9.19567 3995 ft 254 kts 223°
2026-05-06 18:03 50.18676 9.17725 3992 ft 253 kts 223°
2026-05-06 18:03 50.17369 9.15884 3993 ft 254 kts 224°
2026-05-06 18:04 50.16502 9.14663 3994 ft 253 kts 223°
2026-05-06 18:04 50.15198 9.12810 3994 ft 254 kts 225°
2026-05-06 18:04 50.14199 9.10576 4000 ft 252 kts 248°
2026-05-06 18:04 50.13686 9.07977 3993 ft 249 kts 257°
2026-05-06 18:05 50.13356 9.05350 3996 ft 249 kts 259°
2026-05-06 18:05 50.13049 9.02673 3992 ft 252 kts 259°
2026-05-06 18:05 50.12746 8.99984 3991 ft 252 kts 259°
2026-05-06 18:05 50.12439 8.97292 3995 ft 253 kts 259°
2026-05-06 18:06 50.12132 8.94592 3996 ft 258 kts 259°
2026-05-06 18:06 50.11815 8.91817 3992 ft 259 kts 259°
2026-05-06 18:06 50.11500 8.89078 3994 ft 254 kts 258°
2026-05-06 18:06 50.11000 8.86453 3980 ft 252 kts 248°
2026-05-06 18:07 50.10272 8.83973 3850 ft 252 kts 244°
2026-05-06 18:07 50.09464 8.81556 3701 ft 251 kts 245°
2026-05-06 18:07 50.08786 8.79051 3569 ft 251 kts 251°
2026-05-06 18:07 50.08226 8.76485 3399 ft 250 kts 250°
2026-05-06 18:08 50.07608 8.73942 3584 ft 251 kts 250°
2026-05-06 18:08 50.06987 8.71431 3841 ft 252 kts 249°
2026-05-06 18:08 50.06354 8.68859 3475 ft 261 kts 249°
2026-05-06 18:08 50.05698 8.66106 2556 ft 276 kts 252°
2026-05-06 18:09 50.05109 8.63250 2075 ft 273 kts 254°
2026-05-06 18:09 50.04512 8.60603 2359 ft 251 kts 251°
2026-05-06 18:09 50.03870 8.58081 2510 ft 251 kts 249°
2026-05-06 18:09 50.03163 8.55594 2521 ft 252 kts 246°
2026-05-06 18:10 50.02383 8.53141 2529 ft 253 kts 244°